• MPC Preparation (Info)

  • MPEC 2022-K176 : 2022 KF6

    The following Minor Planet Electronic Circular may be linked-to from your own Web pages, but must not otherwise be redistributed electronically.

    A form allowing access to any MPEC is at the bottom of this page.


    Read MPEC 2022-K175 Read MPEC 2022-K177


    M.P.E.C. 2022-K176                                 Issued 2022 May 31, 18:39 UT
    
         The Minor Planet Electronic Circulars contain information on unusual
             minor planets and routine data on comets.  They are published
        on behalf of Division F of the International Astronomical Union by the
              Minor Planet Center, Smithsonian Astrophysical Observatory,
                              Cambridge, MA 02138, U.S.A.
    
                 Prepared using the Tamkin Foundation Computer Network
    
                                  MPC@CFA.HARVARD.EDU
                URL https://www.minorplanetcenter.net/    ISSN 1523-6714
    
                                    2022 KF6                                 
    
    
    Observations:
         K22K06F  C2022 05 29.34744 17 14 23.60 +19 13 10.8          16.9 GVEK176703
         K22K06F  C2022 05 29.35251 17 14 49.17 +19 05 51.1          17.0 GVEK176703
         K22K06F  C2022 05 29.35743 17 15 13.86 +18 58 44.5                VEK176703
         K22K06F* C2022 05 30.04971718 23 10.526-01 01 34.61         16.02oVEK176M22
         K22K06F  C2022 05 30.05290518 23 29.287-01 07 49.19         16.11oVEK176M22
         K22K06F  C2022 05 30.05802318 23 59.515-01 17 52.08         16.02oVEK176M22
         K22K06F  C2022 05 30.07042918 25 12.811-01 42 12.35         15.92oVEK176M22
         K22K06F KC2022 05 30.38489318 58 45.070-12 09 44.00         16.83GVEK176I52
         K22K06F KC2022 05 30.38521218 58 46.970-12 10 19.60         16.85GVEK176I52
         K22K06F KC2022 05 30.38553118 58 48.850-12 10 55.10         16.89GVEK176I52
         K22K06F KC2022 05 30.38585018 58 50.760-12 11 31.10         17.19GVEK176I52
         K22K06F KC2022 05 30.96305819 57 55.48 -27 16 16.9                VEK176M21
         K22K06F KC2022 05 30.97000619 58 33.35 -27 25 26.2          17.4 GVEK176M21
    
    Observer details:
    703 Catalina Sky Survey.  Observer D. C. Fuls.  Measurers B. Gray, D. Rankin,
        F. C. Shelly.  0.68-m Schmidt + 10K CCD.
    I52 Steward Observatory, Mt. Lemmon Station.  Observer A. Serrano.  Measurers
        E. J. Christensen, D. Fay, J. B. Fazekas, D. C. Fuls, A. R. Gibbs, A. D.
        Grauer, H. Groeller, J. K. Hogan, R. A. Kowalski, S. M. Larson, G. J.
        Leonard, D. Rankin, R. L. Seaman, A. Serrano, F. C. Shelly, K. W.
        Wierzchos.  1.0-m prime focus + CCD.
    M21 Schiaparelli Southern Observatory, Hakos.  Observers A. Aletti, F.
        Bellini, L. Buzzi, G. Galli.  Measurer L. Buzzi.  0.36-m f/8.4 reflector +
        CCD.
    M22 ATLAS South Africa, Sutherland.  Observers L. Denneau, R. Siverd, J.
        Tonry, H. Weiland.  Measurers L. Denneau, N. Erasmus, A. Fitzsimmons, A.
        Lawrence, J. Robinson, R. Siverd, J. Tonry, H. Weiland.  0.5-m Reflector +
        CCD.
    
    Orbital elements:
    2022 KF6                                                 Earth MOID = 0.0074 AU
    Epoch 2022 Jan. 21.0 TT = JDT 2459600.5                 Alexandersen            
    M 321.08324              (2000.0)            P               Q                  
    n   0.30118743     Peri.  179.34610     -0.36304850     +0.91153928             
    a   2.2041686      Node    69.35223     -0.85581658     -0.24425517             
    e   0.5371776      Incl.   11.90953     -0.36847491     -0.33081044             
    P   3.27           H   25.62          G   0.15           U   7                  
    Residuals in seconds of arc
    220529 703  0.5+  0.4-    220530 M22  0.1+  0.1-    220530 I52  0.1+  0.0
    220529 703  1.3+  0.5-    220530 M22  0.3-  0.3+    220530 M21  0.0   0.1-
    220529 703  0.4-  1.2+    220530 I52  0.1-  0.0     220530 M21  0.4-  0.1+
    220530 M22  0.3+  0.2-    220530 I52  0.0   0.1+
    220530 M22  0.3-  0.4+    220530 I52  0.2-  0.2+
    
    Ephemeris:
    2022 KF6                 a,e,i = 2.20, 0.54, 12                  q = 1.0201
    Date    TT    R. A. (2000) Decl.     Delta      r    Elong.  Phase     V
    2022 05 01    13 08 04.3 +49 01 16   0.1621  1.0822   113.4    58.7    23.9
    ...
    2022 05 16    13 20 59.2 +49 50 49   0.08053 1.0354   105.5    70.2    22.7
    ...
    2022 05 24    14 02 04.5 +48 13 57   0.03580 1.0231   106.1    72.0    21.0
    ...
    2022 05 30    18 18 06.1 +00 27 14   0.0078831.0201   144.8    34.9    16.6
    2022 05 31    20 00 32.6 -28 03 12   0.0093551.0201   132.3    47.3    17.3
    2022 06 01    21 20 11.2 -41 33 29   0.01335 1.0203   118.0    61.4    18.5
    ...
    2022 06 07    23 42 46.0 -51 05 13   0.04567 1.0245   101.0    76.5    21.6
    ...
    2022 06 15    00 12 38.1 -51 34 30   0.09025 1.0383   102.1    73.0    23.0
    ...
    2022 06 30    00 20 03.0 -52 07 08   0.1705  1.0876   110.3    61.3    24.1
    
    M. P. C. Staff               (C) Copyright 2022 MPC           M.P.E.C. 2022-K176
    


    Read MPEC 2022-K175 Read MPEC 2022-K177


    MPEC number:

    Enter an MPEC number in one of the following forms:

    • 1997-B01 (the full form)
    • J97B01 (the packed version of the full form)
    • B01 (the abbreviated form)